STARLINK-35493, 65928

Orbit data source: Space-Track

STARLINK-35493, 65928 is a payload satellite owned by SpaceX/Seattle (US) in LEO that was launched on Wed, 08 Oct 2025 UTC via an FALCON 9 launch vehicle from the Air Force Western Test Range (AFWTR). Payload-class satellites include a variety of spacecraft equipped with specific instruments for various scientific and technological missions. These include communications satellites like Starlink; space stations such as the ISS; scientific satellites like the Hubble; Earth observation satellites from companies like Planet Labs, Umbra, and HawkEye 360; GPS; miniature CubeSats for education and research; and military/defense satellites.

Loading next visibility...
Identifier
65928, 2025-225U
Orbit
LEO
Country
Flag of USUS
Related business
Manufacturer
SpaceX/Seattle
Mission
Operational Commercial Communications
Bus & Motor
STARLINK V2MO, Unknown motor
Mass
575 kg wet, ~530 kg dry
Launch date (UTC)
2025-10-08 (8 months ago)
Launch vehicle
FALCON 9
Launch site
Air Force Western Test Range (AFWTR)
Object type
Payload
Rocket body
Debris
Shape & HBR
Box + 2 Pan, 17.7 m
Radar Cross Section
36.964 m², Large (>1 m²)

Expand to show TLE details & history
Last TLE update: 11 hours ago

TLE from 11 hours ago
0 STARLINK-35493
1 65928U 25225U   26151.36108002  .00027372  00000-0  93287-3 0  9994
2 65928  53.1588 141.8086 0001575  70.9180 289.1991 15.30200188 37066
Epoch: 2026-05-31T08:39Z
TLE epoch observation values (Epoch: 2026-05-31T08:39:57.313Z)
Latitude
-0.00005°
Longitude
122.95589°
Altitude
475.759 km
Speed
7.629 km/s
True Right ascension
09h 27m 14s
True Declination
0° 00' 00"
Sunlit
Object was in daylight at epoch
Visualization orbit readout
Latitude
Unknown
Longitude
Unknown
Altitude
Unknown
Speed
Unknown
Apparent Right ascension
Unknown
Apparent Declination
Unknown
Sunlit
N/A
Visualization observer readout
Local Sidereal Time
04:59:24
Azimuth
Unknown
Elevation
Unknown
Doppler factor
Unknown
Orbital elements
Apogee altitude
476.551 km
Perigee altitude
474.392 km
Semi-major axis
6,853.608 km
Eccentricity
0.00016
Inclination
53.1588°
RAAN
141.8086°
Arg. of periapsis
70.918°
True anomaly
289.18205°
Mean anomaly
289.1991°
Eccentric anomaly
289.19058°
Mean motion
3.82529 °/min
Orbital period
94.11 mins
BSTAR
0.00093287
Loading maneuver chart data...
Computing Atmospheric mass density...
Loading historical data...
Loading historical data...
Loading historical data...
Loading historical data...
Loading historical data...
Loading historical data...
Loading historical data...

Documentation

Showing up to 5 results
|